GFSNW_sfc_dewp_000.txt.gz
Dewpoint
52 54 54 54 54 53 47 44 40 48 46 42 42 40 40 41 42 43 42 41 40 38 39 39 39 37 39 41 41 39 39 38 34 35 34 26 25 22 20 23 22 18 18 21
53 52 53 54 54 52 44 40 41 47 46 39 39 38 37 38 40 41 41 40 41 41 40 38 40 41 42 42 39 39 39 37 29 30 33 31 32 28 26 27 28 29 23 22
54 53 53 54 54 53 43 38 33 40 41 39 38 36 35 35 37 40 42 41 41 39 39 39 40 40 39 43 41 45 41 37 33 21 24 31 30 29 27 28 26 23 25 23
55 54 54 54 53 52 44 40 37 38 35 36 36 36 35 34 34 37 39 40 39 37 37 37 37 38 38 39 41 41 39 35 35 34 34 34 33 32 31 30 29 27 26 24
54 54 53 54 53 50 43 37 37 36 36 35 35 35 33 34 33 34 35 37 39 40 36 36 35 37 38 35 37 36 36 32 33 28 26 28 30 32 32 32 31 30 29 29
56 54 53 53 53 48 41 43 41 36 34 35 34 34 33 33 32 33 35 37 38 37 38 39 40 40 40 40 37 35 35 31 26 19 29 29 23 24 27 27 28 29 27 27
55 55 54 54 53 49 44 43 40 36 31 32 33 33 34 33 32 30 29 36 34 33 33 31 31 29 30 32 34 39 33 33 33 26 27 25 26 30 31 29 28 29 29 31
55 55 55 54 53 52 47 48 41 35 29 28 28 31 30 30 31 31 31 30 32 31 27 25 23 24 25 27 31 30 35 31 27 28 26 26 27 28 29 30 27 31 31 37
55 55 55 55 54 53 50 48 47 43 36 36 30 28 30 28 28 28 29 31 33 32 28 26 27 29 24 26 26 37 35 33 30 34 30 27 27 30 31 31 27 34 37 37
54 54 54 54 54 53 51 50 49 47 40 41 35 35 35 30 28 28 28 31 33 35 31 29 28 26 25 25 24 31 35 34 32 31 31 29 31 31 33 26 28 39 34 30
53 54 54 54 54 54 52 50 50 46 43 42 41 38 33 31 32 34 31 32 33 34 30 30 29 27 25 26 26 31 31 33 32 32 31 30 34 34 30 33 39 34 32 33
52 53 53 54 54 54 53 50 50 50 45 45 45 43 41 36 36 36 33 36 34 35 34 32 32 29 29 27 28 28 27 30 30 34 33 36 35 35 36 33 31 33 34 36
51 52 52 53 54 54 53 51 50 48 45 46 45 45 46 45 42 39 38 37 35 36 42 39 37 35 36 31 31 31 30 30 28 30 32 33 33 35 35 34 33 37 37 38
50 50 51 53 53 54 54 51 51 49 46 42 43 45 45 46 45 40 39 41 39 40 42 40 38 36 39 36 35 34 33 32 33 32 32 32 32 32 33 34 35 34 33 32
48 50 51 52 52 53 53 52 51 52 47 42 43 45 44 44 45 44 42 40 41 40 40 39 37 40 39 39 38 36 35 34 32 32 32 33 34 35 34 33 32 32 32 32
48 49 50 51 52 52 51 46 51 51 51 45 37 44 40 41 43 44 43 43 41 41 40 39 40 41 38 35 34 37 37 37 36 34 35 35 33 34 33 33 32 33 34 34
48 49 50 51 52 51 47 44 46 49 51 44 37 39 40 40 42 43 43 43 43 42 41 39 39 39 40 37 34 35 35 35 36 37 36 34 32 32 31 32 34 36 32 23
49 51 51 51 51 48 46 46 47 49 46 43 34 35 36 40 39 39 42 42 42 42 41 41 39 40 39 34 36 35 35 36 36 35 34 35 34 34 34 34 31 24 17 17
50 50 47 46 44 43 43 45 45 46 44 37 35 34 34 39 39 39 40 41 37 41 38 38 39 36 33 36 34 33 34 35 35 33 35 34 33 32 31 29 20 16 16 16
49 47 43 38 41 43 42 41 40 38 39 37 34 36 34 37 38 38 38 37 34 32 35 37 34 33 35 37 37 37 37 36 34 31 29 30 30 31 26 21 19 19 17 15
44 41 38 41 42 41 38 35 35 35 33 35 34 34 33 37 35 36 38 33 34 29 29 32 29 28 32 31 30 32 35 35 33 32 32 31 30 21 12 17 17 16 13 11
44 41 41 40 37 35 33 32 31 31 31 31 32 33 34 36 39 36 34 32 31 27 29 28 24 26 25 26 27 30 32 31 23 22 18 12 13 14 15 14 11 11 13 14
41 37 34 35 33 29 29 26 27 27 29 28 32 31 34 35 36 35 33 28 27 28 25 22 23 25 25 25 28 29 29 21 16 17 17 16 16 13 12 11 13 14 14 14
37 34 31 29 28 30 30 28 30 30 28 30 33 32 31 32 32 32 28 29 28 23 21 21 21 22 22 25 28 28 27 21 16 18 19 15 13 13 14 15 15 14 13 13
35 34 29 30 31 29 25 24 28 28 31 32 30 31 30 29 30 29 29 24 21 21 20 21 22 20 21 25 27 28 27 23 18 19 19 18 14 14 15 15 14 13 13 13
34 33 32 27 28 27 25 27 28 31 32 32 32 29 27 26 27 26 23 20 18 22 24 29 24 19 22 25 26 27 27 23 20 20 19 17 15 15 15 14 14 14 14 15
33 32 35 31 30 32 30 29 29 32 31 30 30 25 24 27 24 22 22 21 22 26 26 24 21 21 23 25 26 27 25 22 19 16 15 15 16 15 14 13 15 16 14 15

GFSNW_sfc_dewp_003.txt.gz
Dewpoint
53 52 53 54 54 54 49 46 39 48 49 42 43 40 41 42 42 42 40 40 39 37 38 37 36 36 39 41 41 37 39 36 32 33 31 28 26 24 22 23 22 22 19 19
53 52 53 54 54 54 45 41 41 47 48 38 39 40 39 40 41 41 40 39 40 40 39 37 39 40 41 42 40 39 39 36 29 32 34 33 34 30 27 26 32 27 21 20
54 53 53 54 55 54 47 38 37 39 44 42 40 38 37 37 39 40 41 40 40 39 37 39 39 39 40 43 41 45 42 36 33 26 27 30 31 33 32 30 28 25 24 25
54 53 53 54 54 53 47 40 37 39 36 38 37 37 36 34 34 39 40 39 38 36 36 36 37 37 37 38 41 40 39 33 31 32 30 29 28 28 28 28 27 24 23 22
55 53 53 54 53 52 43 37 34 36 36 36 34 35 35 34 33 34 36 37 39 37 36 34 36 37 36 35 36 35 37 30 31 26 21 20 21 24 24 25 26 26 26 26
55 54 53 53 53 50 41 42 40 36 35 34 31 32 32 33 33 34 37 38 37 37 38 38 38 38 38 37 34 33 33 27 23 20 21 25 24 24 24 25 24 24 25 27
55 55 54 54 52 49 43 43 40 35 30 31 31 33 34 33 33 30 32 36 33 34 32 30 30 28 27 27 28 32 29 29 28 24 24 25 26 28 28 26 26 27 27 28
55 55 55 54 53 51 45 47 41 37 32 30 31 31 31 32 32 32 32 32 32 30 28 27 27 26 28 28 31 27 27 28 26 27 26 27 28 28 28 28 28 29 28 29
55 55 55 55 54 52 48 46 47 41 40 36 31 30 31 33 30 29 30 32 34 32 28 29 34 35 29 30 31 36 33 30 27 33 31 29 28 30 31 30 27 33 31 33
54 54 55 55 54 53 51 49 49 44 44 40 35 38 38 31 30 29 28 31 31 34 28 30 31 30 26 30 28 32 33 32 29 30 31 31 31 31 32 27 28 38 37 37
52 53 54 54 54 53 53 51 50 45 45 44 41 39 36 32 33 37 33 33 33 32 31 32 30 29 28 28 28 29 31 34 33 32 31 31 34 33 31 33 36 39 35 33
52 52 53 54 54 54 53 51 51 50 47 47 46 44 42 36 38 39 33 37 36 35 35 33 32 29 29 28 28 31 29 31 30 35 34 35 36 35 36 36 35 35 35 34
50 51 52 53 54 54 53 51 50 49 45 46 46 45 47 46 43 39 38 37 37 36 40 39 38 35 35 33 32 32 33 33 31 31 32 33 33 34 35 36 35 35 36 36
49 50 51 52 53 54 53 51 51 50 47 43 44 45 45 46 47 45 42 40 39 40 43 41 39 36 39 37 35 35 35 35 33 33 34 35 35 34 35 35 36 35 35 34
47 49 50 51 52 53 54 53 52 52 49 43 44 45 45 45 46 46 44 41 41 40 40 39 37 40 39 39 38 37 36 34 33 32 34 33 34 35 36 35 34 34 33 32
46 49 50 51 52 52 52 47 52 52 51 45 39 45 42 42 43 44 44 44 43 43 42 40 41 41 39 37 35 36 35 35 36 35 36 36 37 34 35 35 34 33 34 36
47 48 49 51 52 52 47 45 47 49 52 45 40 42 41 41 42 43 43 44 44 43 41 40 40 40 40 38 34 34 33 33 34 35 35 35 36 36 33 33 34 36 35 33
48 49 51 51 50 48 46 45 47 50 46 45 36 39 38 40 40 40 43 42 43 42 41 41 39 40 40 34 36 35 35 34 34 34 36 35 34 33 34 34 33 31 29 19
50 49 48 47 45 44 43 45 46 47 45 39 37 35 35 40 39 41 41 41 38 42 39 38 39 36 33 36 35 34 33 34 36 36 36 35 35 33 31 30 29 27 14 13
48 47 44 41 42 43 43 44 42 39 40 38 36 39 36 38 39 39 38 39 35 32 35 38 35 33 35 35 36 36 37 37 37 34 33 33 32 30 29 29 19 13 12 13
46 43 39 41 42 42 40 36 37 37 34 37 36 35 34 38 36 37 39 34 35 30 32 33 31 29 32 34 36 32 33 34 36 36 35 33 31 31 27 13 13 14 13 11
44 42 41 41 39 36 34 33 33 32 33 34 34 34 36 37 40 37 34 33 33 28 30 29 25 29 28 26 26 28 31 32 32 31 31 29 32 25 9 10 11 11 10 12
42 40 35 36 35 31 30 27 30 31 34 33 34 33 35 36 37 35 34 31 29 29 26 23 25 28 25 25 27 29 31 28 24 21 14 10 10 9 10 10 10 11 12 12
39 35 31 31 29 29 32 31 34 33 33 33 34 33 32 33 33 33 29 30 28 25 22 24 24 24 22 22 27 29 29 23 18 15 13 12 11 11 12 14 13 13 12 12
35 35 29 31 33 34 30 29 30 30 35 35 33 33 31 30 30 30 31 27 23 23 23 25 23 21 20 22 26 28 30 27 18 13 12 12 11 12 12 14 15 13 12 12
35 34 32 29 32 32 28 29 32 33 34 34 35 31 29 28 29 28 26 24 22 26 29 33 30 23 20 22 26 28 29 27 22 14 14 15 16 15 14 15 14 13 14 15
34 33 35 34 35 37 33 31 31 33 33 32 32 28 27 30 27 25 26 25 27 32 31 29 27 25 24 23 25 27 28 28 24 17 18 17 16 16 15 15 17 19 15 16

GFSNW_sfc_dewp_006.txt.gz
Dewpoint
54 53 53 53 55 54 51 50 43 51 52 45 45 41 42 42 41 43 41 41 39 37 38 37 36 37 39 41 42 38 39 37 32 33 32 33 28 26 24 24 22 22 20 21
55 54 54 53 54 54 47 45 44 51 52 40 40 41 39 40 41 41 40 40 41 41 39 38 39 40 41 42 42 39 40 36 33 34 34 34 34 31 27 28 30 29 21 21
54 54 54 54 54 53 49 44 41 47 46 42 40 38 38 38 41 41 41 40 40 38 39 40 40 38 43 44 42 45 42 36 33 28 28 31 32 34 33 31 27 27 26 25
55 54 53 53 54 53 49 43 39 42 40 38 38 38 36 35 37 40 40 39 38 37 36 37 36 38 39 39 42 40 39 33 31 31 31 29 29 29 29 30 30 27 24 25
55 54 53 53 53 52 48 42 38 39 37 37 33 36 35 33 34 35 36 39 38 37 36 36 36 37 36 36 37 36 37 31 30 27 26 23 23 23 22 25 27 27 27 26
56 55 53 53 53 51 45 44 42 41 37 35 32 35 34 35 35 36 38 38 38 38 33 31 31 34 37 37 35 33 33 29 25 21 23 25 24 24 25 25 25 24 23 25
56 55 54 53 52 50 48 46 45 40 32 31 33 34 34 34 34 33 34 35 34 35 31 31 31 28 27 27 29 31 31 30 28 25 26 22 27 29 28 28 27 26 27 28
55 55 55 54 53 51 49 48 44 40 32 32 33 33 33 33 33 33 34 32 32 32 30 30 29 26 29 29 33 32 26 28 27 27 27 28 30 30 29 28 28 30 30 30
54 54 55 55 54 52 51 48 50 45 41 36 32 30 33 32 31 31 32 32 35 35 31 31 32 34 30 28 33 36 34 28 28 29 26 26 29 31 32 31 28 36 35 33
54 54 54 54 54 53 52 50 50 48 45 40 38 39 37 34 33 31 29 32 32 35 30 31 32 31 28 30 29 33 32 30 28 28 28 31 32 32 33 28 30 37 37 36
52 53 54 54 54 53 53 52 51 48 47 45 41 40 36 33 34 36 33 34 34 33 30 33 32 30 29 29 30 32 32 32 31 31 27 25 34 33 31 33 36 37 38 35
52 52 53 54 54 54 53 51 50 50 48 47 47 46 45 38 38 38 34 37 36 37 36 33 32 29 29 29 29 32 28 31 31 34 33 36 35 35 35 35 36 36 36 35
50 51 52 53 53 54 53 50 50 49 46 46 46 46 47 45 43 40 38 37 38 36 43 39 37 34 34 32 31 32 33 33 32 32 32 33 34 35 35 36 36 37 38 38
48 50 52 52 53 54 53 50 50 50 46 42 45 46 46 47 47 46 43 40 41 41 43 41 39 37 39 37 37 36 35 36 34 34 35 35 35 35 36 35 35 36 35 35
47 49 51 51 52 53 53 52 51 52 48 42 44 46 45 45 45 46 46 42 41 41 39 39 37 40 39 39 38 36 37 35 34 32 33 35 35 36 36 35 36 35 33 33
46 49 50 51 52 52 50 46 51 52 51 44 37 46 42 43 44 45 45 44 42 43 41 40 41 41 39 36 36 37 35 35 35 33 34 35 36 35 35 34 34 34 35 36
45 48 49 51 51 51 46 45 46 48 51 44 38 41 41 41 44 44 43 44 43 43 41 40 40 40 41 38 34 34 33 34 34 35 35 35 35 34 33 34 36 36 34 33
47 48 50 51 49 48 45 45 47 49 46 44 34 37 38 40 40 40 44 42 42 42 41 41 39 40 40 34 36 34 35 35 34 35 35 35 34 34 33 34 33 30 29 26
49 51 50 47 45 44 44 45 46 47 45 38 36 34 34 39 39 40 40 41 36 42 38 39 39 37 33 35 35 35 35 34 36 34 33 34 34 34 32 31 31 29 28 23
49 47 44 39 42 43 43 43 41 39 40 39 36 40 36 39 39 36 36 37 34 32 35 38 34 34 36 35 36 36 36 35 35 34 33 33 33 32 30 29 29 26 14 13
46 42 38 42 42 42 40 35 36 37 34 37 36 36 35 38 35 35 36 33 34 28 32 32 31 28 32 34 34 32 32 32 33 34 33 33 32 31 30 29 19 14 14 13
44 41 42 41 38 36 33 32 33 33 32 35 34 34 37 37 39 36 34 32 32 27 31 29 25 28 30 27 26 27 30 32 32 30 31 30 31 31 29 18 14 14 12 11
43 38 35 34 34 29 26 25 30 31 33 32 33 33 35 36 37 34 33 31 29 29 26 24 25 29 25 25 26 28 29 30 28 26 24 24 26 21 12 11 11 10 11 12
37 34 28 28 26 27 29 31 32 32 32 32 34 33 33 33 33 33 29 32 28 25 22 21 26 27 27 24 26 28 27 28 23 21 15 12 12 11 11 12 11 12 12 13
34 34 25 29 30 31 29 30 30 31 33 33 32 31 30 30 30 29 30 27 23 24 21 26 23 22 20 21 25 28 28 28 21 17 13 12 11 12 12 14 15 14 13 13
34 33 32 28 29 30 26 29 31 32 34 32 32 29 28 27 27 28 25 25 20 23 26 28 26 24 21 20 24 27 29 29 25 17 13 13 13 13 14 15 15 14 14 16
32 32 33 30 29 31 30 31 31 33 32 27 30 27 22 25 26 25 25 23 27 30 27 27 26 23 23 21 23 26 27 27 26 20 16 16 17 16 15 14 17 17 17 16

GFSNW_sfc_dewp_009.txt.gz
Dewpoint
55 55 54 54 54 54 49 46 38 46 51 43 42 40 42 42 42 44 42 43 42 40 41 36 39 39 40 41 42 38 39 34 31 32 32 32 28 26 24 23 22 22 20 20
56 55 54 54 53 53 45 41 41 47 47 39 39 39 40 40 41 41 41 41 42 40 39 38 40 40 42 43 41 39 39 36 33 32 33 34 32 31 27 28 29 27 20 21
56 55 54 53 54 53 47 41 37 43 42 41 39 38 39 38 40 40 41 40 39 39 39 41 39 39 43 43 41 45 42 35 32 28 28 32 33 33 33 30 27 26 27 25
56 55 54 53 53 53 47 39 35 39 36 35 36 35 36 36 37 40 39 38 38 38 36 36 37 39 39 38 41 39 38 31 31 30 31 29 29 30 30 31 30 27 24 25
56 55 54 53 53 52 43 39 35 38 36 35 32 35 33 34 35 36 38 38 36 35 33 36 36 37 36 36 36 36 35 31 29 26 27 25 24 25 25 27 29 29 29 28
56 55 54 54 53 50 42 42 41 35 35 32 31 33 33 34 35 36 37 37 37 34 32 30 30 32 35 37 34 33 32 27 25 21 26 25 23 24 24 24 24 24 22 24
55 55 55 54 53 50 46 44 43 35 30 31 33 34 35 33 34 33 33 34 34 34 32 30 29 26 25 26 27 31 32 29 28 25 26 22 26 30 28 27 28 27 26 27
55 55 55 55 54 53 46 46 42 37 30 32 32 34 33 32 32 32 33 32 32 33 29 29 27 27 29 31 35 34 28 29 26 26 26 28 30 30 29 28 29 31 30 32
54 54 54 55 54 53 48 46 47 43 35 32 32 30 31 30 30 30 31 32 34 34 30 31 29 28 30 28 33 35 31 29 27 25 23 23 30 31 32 31 25 36 35 35
53 54 54 54 54 53 51 48 48 46 40 39 38 35 32 33 32 29 29 29 30 33 31 33 31 30 28 28 28 30 29 29 26 27 26 28 32 32 33 26 26 36 37 36
52 53 53 54 54 53 52 50 49 47 43 42 40 39 34 32 34 32 32 34 33 33 31 32 30 30 30 28 31 32 31 28 28 28 25 24 34 33 30 33 35 37 37 38
52 52 53 53 54 53 53 48 49 49 46 45 47 46 46 38 38 35 33 37 35 35 34 33 31 29 29 28 28 31 28 32 33 31 30 33 35 35 35 35 35 35 35 35
50 51 52 53 53 54 53 50 49 47 45 44 44 45 46 45 42 39 36 37 37 36 42 38 37 34 33 30 30 30 33 34 32 32 34 33 35 35 35 35 35 36 37 37
49 50 52 52 53 54 52 50 50 49 46 42 44 45 45 46 46 42 42 39 41 42 42 40 37 37 38 36 35 34 34 35 34 34 34 34 35 35 36 35 35 35 34 34
49 51 51 52 52 53 53 51 50 52 47 42 42 45 44 44 46 46 42 42 41 40 38 38 35 39 39 39 36 33 36 35 34 33 35 34 35 36 36 35 35 35 33 33
48 50 51 51 52 52 50 46 49 51 51 44 35 45 42 43 44 46 45 43 42 42 40 38 40 41 39 35 34 36 37 37 37 36 35 34 35 35 35 34 34 35 34 35
47 49 50 51 51 49 46 44 46 48 51 44 37 39 41 41 44 44 44 44 43 42 41 40 40 39 40 38 33 34 36 35 34 35 36 34 35 34 33 35 35 35 34 34
47 48 50 51 49 48 45 45 47 49 46 44 34 36 38 40 41 40 44 42 42 42 40 40 39 40 40 35 36 36 36 35 35 35 35 35 33 33 34 34 34 30 29 28
48 50 50 47 44 43 43 45 46 47 45 37 35 34 34 40 40 41 40 41 36 42 39 39 39 37 34 35 36 36 35 34 35 34 33 33 32 34 33 32 31 27 28 27
50 47 43 38 41 43 44 42 40 39 40 39 36 39 34 38 39 37 36 36 34 32 35 38 35 35 36 36 36 36 35 35 34 30 28 32 33 33 33 29 30 30 29 25
45 40 37 41 43 41 38 35 35 37 34 37 37 36 34 37 35 33 36 33 33 28 30 32 30 29 31 32 33 32 30 32 32 32 31 32 32 32 33 31 30 29 16 14
43 40 41 40 37 35 31 31 32 33 31 35 34 34 37 36 37 34 34 31 31 25 32 29 24 27 29 29 27 28 30 31 32 31 30 30 31 31 31 30 22 15 14 12
42 37 34 31 33 27 26 23 27 29 32 33 33 33 35 35 36 34 33 29 28 29 27 24 24 28 27 25 25 26 29 30 27 26 26 28 30 30 25 16 14 13 10 11
36 33 29 25 23 24 23 24 26 29 30 31 33 31 33 31 33 32 27 32 27 23 22 20 25 27 27 26 25 25 25 27 26 23 20 16 15 11 11 11 10 10 11 13
33 32 21 24 25 27 21 23 25 27 29 31 29 31 30 30 29 29 28 25 23 22 20 24 25 22 23 21 23 24 26 27 27 22 18 13 12 11 10 13 13 13 14 14
33 31 29 30 29 28 23 25 23 28 28 26 27 29 27 26 27 26 25 24 19 21 24 24 21 23 21 20 21 23 26 26 27 24 18 14 12 11 12 13 14 15 15 15
32 31 29 24 28 28 27 27 27 31 28 23 26 22 19 23 25 22 23 21 24 24 24 24 24 25 26 23 20 22 25 26 27 25 18 14 14 15 15 15 16 15 16 16

GFSNW_sfc_dewp_012.txt.gz
Dewpoint
56 56 55 54 53 53 47 45 38 49 49 42 42 41 44 46 47 48 46 40 41 40 41 38 39 39 39 42 40 37 40 31 28 29 31 30 28 26 23 21 20 22 21 21
56 56 55 54 53 52 45 40 41 51 49 40 38 40 40 45 44 43 43 44 44 44 40 39 40 40 42 43 40 38 38 35 31 31 33 34 31 27 26 28 28 25 21 22
56 55 55 54 54 53 45 40 37 40 41 41 39 38 38 39 42 41 41 41 42 40 39 40 39 39 42 42 41 45 41 34 32 28 30 32 31 33 30 26 25 23 25 24
56 55 55 54 54 53 46 38 35 39 34 35 36 36 37 36 36 39 42 40 38 38 36 36 37 39 38 38 41 37 36 31 31 30 30 30 31 32 33 30 28 23 25 27
56 55 55 54 53 52 42 37 35 37 35 35 33 35 33 35 36 37 38 36 35 35 34 34 36 37 36 35 36 35 34 30 28 24 25 25 25 26 27 29 30 30 29 28
56 55 54 54 53 49 41 41 41 33 35 31 31 33 33 34 36 36 35 36 31 29 30 30 30 35 35 35 34 33 31 26 22 20 26 24 20 23 24 24 24 24 21 22
55 55 55 54 54 49 44 44 42 32 30 32 33 34 34 33 34 34 32 34 32 33 31 30 28 28 32 33 33 33 30 28 27 24 26 21 24 29 29 25 26 27 26 28
55 54 55 54 54 53 44 45 40 35 31 33 33 33 32 31 31 32 31 31 32 33 30 30 28 29 30 31 35 34 30 28 27 26 25 27 29 29 28 27 30 33 33 33
54 54 54 54 54 52 46 45 45 40 33 31 33 32 31 30 29 29 30 30 33 33 31 33 29 28 29 28 33 32 29 29 27 25 24 24 28 30 32 30 25 35 35 34
53 53 53 54 54 52 50 47 47 45 37 38 37 31 32 32 31 29 29 28 29 33 32 31 28 30 30 28 29 28 26 26 25 28 25 27 30 32 32 26 24 36 37 36
52 52 53 53 54 52 51 48 48 46 41 41 41 39 33 33 33 33 32 34 33 32 32 32 31 30 30 28 30 30 28 26 26 27 24 22 33 34 31 31 36 35 35 35
52 52 53 53 54 53 52 48 48 48 45 44 46 45 45 38 39 34 33 37 33 34 35 34 31 30 28 28 28 30 29 32 30 29 28 33 35 34 35 35 34 34 36 37
51 52 52 53 54 53 51 47 46 46 43 43 44 43 46 45 41 39 35 36 37 38 40 36 35 31 32 28 29 29 31 33 32 31 33 34 34 35 35 35 35 35 37 37
50 51 52 53 53 53 52 49 49 48 44 39 43 46 44 46 46 42 41 40 42 42 42 39 38 37 36 33 34 32 32 34 33 33 34 35 35 35 35 35 36 36 35 35
49 51 52 53 53 53 52 51 51 51 44 41 43 45 43 44 46 43 42 41 40 39 39 38 37 40 38 35 34 35 35 34 33 32 35 34 35 35 36 36 35 35 34 32
50 51 51 51 53 52 50 45 49 50 50 42 35 43 41 44 46 44 43 43 43 42 40 39 40 41 36 33 33 34 36 37 36 35 36 34 35 34 34 35 34 34 33 33
49 50 51 51 51 48 45 43 46 48 50 42 36 39 41 41 44 44 44 44 43 42 41 39 39 39 39 35 32 34 36 37 35 35 35 33 34 33 33 34 35 35 35 35
49 50 51 50 49 48 45 45 47 49 46 44 34 36 38 41 41 40 44 42 42 42 40 40 39 40 39 34 34 33 35 35 34 34 35 34 33 32 34 34 33 32 30 29
49 50 49 46 44 42 43 45 47 47 44 37 35 34 33 40 40 41 40 41 36 42 39 39 38 35 33 34 34 34 35 34 33 33 34 33 30 33 33 33 32 30 28 27
50 46 42 38 41 44 44 42 40 39 40 39 36 39 35 38 39 37 36 36 34 33 36 39 35 34 36 36 37 37 35 34 34 30 27 31 26 31 33 32 32 30 29 28
45 40 37 41 43 41 37 34 34 36 34 37 38 37 35 38 34 34 36 32 33 27 28 32 30 28 31 31 33 33 31 33 33 31 30 30 31 32 32 33 30 30 28 19
43 40 41 41 37 35 31 32 31 33 27 35 35 35 36 36 37 34 34 30 31 25 33 29 25 28 28 29 28 28 30 30 31 31 29 30 31 31 31 30 29 28 20 14
41 37 35 33 33 28 25 24 26 28 32 33 33 33 35 35 36 34 33 29 28 31 27 22 24 27 27 27 26 26 26 28 27 26 27 29 30 30 30 29 26 18 14 12
36 33 29 27 25 26 24 22 24 28 31 34 34 32 33 33 33 32 29 31 28 24 22 19 24 26 27 27 26 24 23 27 26 25 24 22 27 27 24 19 14 12 11 11
33 32 25 25 22 27 22 22 26 29 33 33 31 30 30 30 29 29 29 25 22 22 21 23 25 23 26 25 23 22 22 23 26 25 23 20 15 12 10 11 11 10 11 13
33 30 25 28 29 27 20 16 29 30 31 27 26 28 25 26 26 25 22 20 19 22 24 24 20 22 21 21 21 21 21 23 25 26 25 21 15 13 11 11 13 14 14 15
31 29 29 24 25 27 25 25 25 31 26 23 22 16 16 26 22 18 22 22 25 25 23 23 24 25 26 26 25 21 21 23 25 26 26 22 17 13 12 12 15 15 16 15

GFSNW_sfc_dewp_015.txt.gz
Dewpoint
56 56 56 55 53 53 46 43 39 50 50 43 44 43 45 44 45 49 46 40 38 38 38 38 40 38 38 41 39 36 36 29 26 26 32 28 27 23 22 23 21 22 21 21
56 56 56 55 54 52 44 40 40 50 49 40 39 44 45 46 45 44 44 40 43 39 39 39 39 40 42 43 39 38 37 33 30 29 33 34 31 27 25 27 26 22 20 21
56 55 55 55 54 53 45 41 37 41 43 41 39 41 42 42 44 44 44 44 44 40 38 39 39 39 42 42 40 44 40 34 28 24 28 32 31 30 27 27 24 23 23 25
56 55 55 55 54 53 46 38 34 38 35 36 37 37 40 39 40 44 45 43 44 39 37 37 38 39 37 38 41 37 34 31 30 29 30 32 32 32 29 26 25 23 24 26
55 55 54 54 54 51 41 37 35 36 35 34 33 35 36 36 36 40 42 42 37 40 36 34 37 37 36 35 36 34 32 30 27 23 25 25 26 28 32 32 31 28 30 29
55 55 54 54 54 48 40 41 41 33 35 31 31 32 33 35 36 35 36 37 32 32 32 30 32 34 33 35 34 32 28 26 22 21 26 24 17 22 24 24 26 28 23 23
55 55 55 53 54 48 43 43 42 32 29 31 31 34 34 35 34 34 33 33 31 32 31 29 31 31 33 34 34 32 28 27 25 22 25 17 21 30 28 25 29 28 30 31
54 54 54 54 54 51 43 44 40 34 31 33 32 32 32 31 31 31 31 31 32 33 30 29 29 30 28 31 34 30 30 28 27 25 23 24 29 29 27 28 32 34 33 34
54 54 54 54 54 52 46 45 44 38 34 31 33 32 32 29 29 28 30 30 32 32 34 34 29 28 28 28 31 30 29 29 28 28 26 25 28 30 32 29 30 35 36 35
53 53 53 54 54 52 48 45 46 42 34 37 35 31 31 31 30 28 29 30 30 33 34 31 29 31 30 29 29 26 25 26 26 28 26 27 30 32 32 26 26 35 35 36
53 53 53 53 54 52 50 46 46 45 39 40 41 39 33 33 32 32 31 34 33 32 32 32 31 30 29 29 30 27 25 25 26 28 25 23 33 34 30 31 35 34 34 34
52 52 53 53 54 53 51 46 47 47 43 41 44 44 44 38 38 33 32 36 33 34 34 33 31 30 29 29 28 31 30 30 28 28 28 32 35 34 35 35 34 35 35 35
52 52 52 53 54 53 51 48 48 45 42 42 43 42 45 45 42 38 35 36 36 38 38 36 34 30 31 28 28 29 31 33 31 31 32 34 34 35 35 37 36 36 36 36
51 52 53 53 54 52 51 47 48 47 43 39 43 45 43 44 46 41 40 39 41 41 41 38 36 34 34 31 32 31 32 34 33 32 33 34 35 35 35 36 35 35 35 34
50 52 53 53 53 52 50 50 50 50 44 41 43 44 43 44 46 41 41 40 39 39 38 38 38 40 38 36 34 34 35 34 32 31 34 33 34 36 36 35 35 35 34 32
49 52 52 52 53 52 48 42 48 49 49 41 35 43 41 44 44 44 43 43 42 41 39 39 40 40 37 33 29 33 35 37 36 34 36 34 35 35 33 34 33 34 33 33
50 51 51 52 51 48 43 40 44 49 49 41 37 38 41 41 44 44 43 43 43 43 41 39 39 39 38 34 32 34 35 36 35 34 35 33 33 32 32 33 34 35 33 33
50 51 51 49 49 47 44 46 48 49 45 41 33 36 37 41 41 40 44 42 42 42 40 40 38 39 38 31 33 32 34 34 34 34 33 33 32 32 32 33 34 33 33 32
50 50 50 46 44 43 43 46 48 47 42 37 35 34 33 40 40 41 40 41 36 41 39 38 37 36 32 32 33 34 35 33 33 33 33 33 30 30 33 34 33 31 31 28
50 46 41 38 42 44 44 42 40 38 40 40 35 37 35 39 38 36 36 36 35 33 36 39 36 35 36 35 36 35 35 34 33 30 28 28 31 27 30 31 32 32 31 28
45 40 37 41 43 41 38 34 35 36 34 38 37 36 35 38 34 34 36 32 32 28 31 33 30 25 28 30 31 32 32 33 32 31 29 28 28 29 30 31 32 31 29 27
43 40 42 41 36 34 31 32 32 33 28 34 35 35 37 36 37 34 34 30 30 23 31 29 22 25 28 29 27 28 29 30 31 30 30 28 30 30 30 30 30 29 28 22
42 38 36 35 33 28 27 25 27 28 30 34 34 33 35 36 37 34 32 28 26 30 28 24 23 25 27 27 26 26 27 29 29 28 28 29 29 29 29 29 28 27 25 16
35 32 27 29 27 26 25 22 24 27 33 35 35 32 33 34 33 33 28 29 29 23 13 17 23 26 26 27 25 24 24 26 26 26 25 25 26 28 28 28 26 22 17 14
32 32 28 27 21 23 22 25 31 31 36 33 31 31 30 30 30 28 29 26 23 22 17 21 24 24 26 25 25 24 23 21 23 24 24 23 21 22 22 18 16 14 13 11
32 30 24 26 22 26 26 25 30 32 32 30 28 26 26 27 27 27 25 21 16 19 22 22 19 22 22 21 21 21 21 21 21 23 24 24 22 17 14 12 11 11 11 13
31 29 29 21 17 25 27 29 32 33 32 27 24 18 19 27 23 21 21 19 22 22 20 21 23 23 24 24 25 25 24 21 21 23 24 25 24 18 13 12 13 14 15 15

GFSNW_sfc_dewp_018.txt.gz
Dewpoint
56 56 56 56 55 53 45 42 39 51 53 44 45 43 45 45 45 48 45 44 38 35 39 37 37 37 39 41 39 31 31 28 25 27 29 27 24 24 25 25 22 22 21 22
56 56 56 55 55 51 42 39 41 50 49 42 42 45 45 46 45 46 44 39 39 37 37 38 41 40 42 41 38 37 34 31 29 28 31 33 29 25 24 26 25 21 20 22
55 55 55 55 55 53 44 40 37 45 46 44 41 43 43 43 47 45 44 40 39 40 39 40 40 40 41 42 40 44 39 32 26 26 27 31 30 27 26 26 24 23 23 25
54 55 55 54 55 53 45 38 34 38 36 38 38 40 42 41 42 44 44 43 40 38 37 38 38 38 38 39 43 38 34 31 31 27 31 31 30 29 27 26 26 25 27 25
54 55 55 54 54 51 42 37 35 36 35 34 35 37 37 39 36 41 42 41 39 38 37 37 37 36 36 35 36 34 33 30 27 24 25 27 29 31 28 28 28 25 28 27
54 54 54 54 54 49 41 40 40 34 34 31 31 33 38 37 37 40 43 38 39 34 33 32 33 35 35 36 33 31 29 27 26 25 25 22 20 22 31 30 30 30 28 29
54 54 55 55 54 50 43 42 40 33 29 31 31 34 36 37 35 37 39 39 35 34 31 34 34 32 34 33 32 31 27 25 25 22 23 15 22 31 26 27 28 27 28 31
53 53 54 55 54 52 43 43 40 33 30 33 32 32 32 31 31 30 32 31 32 32 31 37 33 33 27 31 30 29 29 27 26 22 20 23 28 29 29 28 31 34 33 34
53 53 54 54 54 52 45 44 43 37 33 32 33 31 31 31 29 28 30 30 33 34 36 33 30 31 29 26 29 28 29 29 26 29 27 22 27 31 31 33 31 35 35 35
53 54 53 54 54 52 48 44 45 40 34 36 34 31 31 30 29 29 29 29 31 34 34 32 32 30 30 27 27 24 26 27 25 28 26 27 30 32 32 26 28 36 35 34
53 53 53 53 54 53 50 45 45 44 38 39 41 38 32 32 32 29 30 32 31 33 33 32 31 29 29 29 29 25 25 25 26 28 25 24 32 34 29 31 34 34 34 34
53 53 53 53 54 53 51 45 46 46 41 41 44 44 43 39 37 33 32 35 32 34 34 33 32 30 29 30 29 31 28 28 27 29 29 32 35 34 35 35 34 34 34 35
52 52 53 53 54 53 52 48 47 44 42 42 42 42 45 45 44 38 36 36 35 37 37 34 33 30 31 29 29 28 30 33 31 30 32 33 34 35 35 36 35 35 36 36
52 52 52 53 54 52 51 49 49 47 44 40 42 45 41 44 45 41 40 39 41 40 40 37 36 33 33 30 31 30 31 33 32 32 33 35 35 35 35 35 35 35 34 33
51 52 53 53 53 52 51 50 50 50 44 41 42 44 42 45 43 42 41 40 39 39 37 39 37 38 36 33 33 32 34 33 32 31 34 34 34 35 35 35 34 34 34 32
51 51 52 53 52 51 47 43 48 49 49 42 36 43 42 44 44 44 43 42 41 39 37 36 37 38 35 31 29 33 35 36 35 34 35 34 35 35 33 34 33 33 32 32
50 51 52 52 51 47 42 39 43 48 49 41 37 38 41 42 44 44 43 43 43 42 40 37 37 38 37 32 28 32 34 36 35 35 34 33 32 32 32 33 34 35 33 32
51 51 51 50 49 47 42 46 48 47 44 40 33 35 38 41 41 40 43 41 42 41 40 40 38 39 38 33 33 32 34 34 33 33 33 33 32 31 32 33 35 34 33 33
51 50 50 46 44 43 44 47 48 44 41 35 35 33 30 41 40 41 40 41 36 41 38 38 38 36 33 33 33 34 34 34 33 32 33 31 31 33 34 34 33 31 31 32
50 45 41 38 42 45 44 40 39 39 39 39 35 35 35 37 38 36 36 36 34 33 36 39 35 34 35 34 34 35 35 34 33 30 27 31 30 31 30 30 29 30 30 31
44 39 37 41 43 40 35 34 35 35 33 37 36 34 35 38 34 34 35 32 32 28 31 34 28 27 29 29 30 32 32 33 31 30 29 29 27 27 28 29 30 30 32 30
42 40 42 41 36 34 27 28 30 33 30 34 35 35 36 36 37 33 32 30 24 26 32 31 21 25 28 28 27 27 31 32 32 29 29 29 29 29 29 29 29 29 29 28
42 38 35 36 33 27 28 27 28 26 29 34 34 33 36 36 36 31 29 27 26 30 28 24 24 24 26 27 26 26 27 29 29 28 28 28 29 29 28 28 28 27 27 26
35 32 28 30 27 28 27 24 25 26 33 35 35 33 34 34 33 32 27 28 29 25 21 19 21 25 26 26 25 25 25 26 26 26 25 24 25 26 27 28 27 26 25 23
32 32 28 27 23 25 21 24 30 32 36 33 32 31 32 30 30 27 23 26 23 23 17 21 23 25 26 26 25 25 22 22 23 23 23 24 23 22 23 25 24 22 20 17
32 29 25 26 23 25 26 28 31 33 34 32 32 28 26 26 26 26 18 16 14 19 21 21 21 25 24 23 23 22 21 21 21 22 23 23 23 22 20 16 14 13 14 13
31 29 28 21 16 21 28 30 33 33 31 27 25 23 24 27 25 24 20 18 20 21 20 23 23 23 22 23 24 25 24 23 22 21 22 22 24 21 18 17 15 13 13 14

GFSNW_sfc_dewp_024.txt.gz
Dewpoint
55 55 56 56 56 54 49 45 40 52 52 40 40 35 38 40 40 42 39 37 30 27 28 28 30 30 32 34 35 37 38 28 30 33 33 35 35 36 36 33 27 25 23 23
55 55 55 56 56 51 44 38 45 52 49 37 36 38 39 40 39 41 40 38 32 30 27 28 34 32 31 37 37 37 36 30 29 30 34 32 34 30 35 31 27 26 25 24
54 55 55 55 56 53 46 41 41 46 46 45 41 38 38 38 42 41 39 42 34 29 26 30 32 36 36 39 37 43 37 31 29 26 28 32 34 37 29 32 31 27 25 25
54 54 54 55 55 53 46 41 39 43 39 39 41 41 43 38 40 43 43 42 37 26 25 29 33 37 39 40 40 40 38 30 29 29 32 30 31 34 36 27 29 27 27 27
54 54 54 54 55 53 46 38 37 38 39 41 39 42 41 42 42 43 43 39 39 33 31 31 34 38 36 39 40 37 37 30 29 27 30 31 29 30 34 32 28 28 28 27
54 54 53 54 54 51 45 42 41 38 37 34 39 41 42 43 41 43 41 38 36 36 39 38 38 39 39 39 38 37 35 32 30 27 27 29 28 29 29 29 28 27 26 28
53 54 54 54 54 51 45 42 41 37 31 33 37 35 43 42 42 42 38 38 36 35 36 38 39 38 38 39 37 37 35 33 32 27 24 29 28 29 30 29 28 29 28 29
52 54 54 54 54 52 48 45 43 39 34 32 37 35 38 38 39 38 39 38 37 36 35 38 38 39 38 36 32 34 37 34 31 31 26 27 24 28 28 30 29 30 30 30
53 53 53 53 54 54 48 46 45 40 34 32 35 35 33 34 36 38 38 40 38 39 39 39 36 34 36 33 34 31 32 33 37 31 28 29 25 30 30 31 26 33 31 33
54 53 52 53 54 54 49 46 46 42 37 36 35 33 33 32 37 36 36 38 40 41 39 35 34 31 34 32 31 33 29 28 34 35 33 26 29 31 33 23 27 35 33 35
53 52 52 53 54 54 50 48 47 45 39 41 42 38 33 32 35 39 36 38 38 40 37 37 35 31 34 30 29 31 30 32 30 34 31 29 32 31 28 33 37 36 36 36
50 52 52 53 53 54 52 47 48 48 44 43 46 45 44 38 37 34 33 36 36 41 38 37 34 30 30 31 25 30 28 33 28 29 29 34 35 34 35 37 36 36 36 35
49 52 53 53 54 54 52 49 48 47 46 45 44 43 45 44 45 43 36 38 35 37 39 38 37 34 33 31 31 30 31 33 29 30 33 34 34 35 36 36 35 36 36 36
49 53 53 53 53 54 53 49 48 48 46 41 42 45 43 44 44 41 40 39 40 40 40 40 38 36 34 34 32 32 32 33 31 32 34 34 34 35 35 36 36 36 36 36
50 53 53 53 53 53 52 50 50 50 46 41 42 43 44 44 42 41 41 41 40 40 41 41 40 37 37 36 35 34 33 32 31 31 34 34 34 35 36 36 36 36 35 35
52 52 52 52 52 52 49 46 49 50 49 44 40 43 42 44 44 43 43 43 42 42 42 41 41 40 38 39 36 34 34 35 34 33 35 35 36 36 36 36 36 36 36 36
51 51 51 52 52 49 45 43 47 49 49 42 37 40 41 42 44 44 43 44 44 44 41 40 40 40 39 36 36 33 35 36 35 35 35 35 35 35 36 36 36 36 35 35
51 51 52 51 49 48 46 48 47 48 43 40 34 36 40 42 42 41 43 43 43 42 42 41 39 40 38 38 36 33 36 36 35 34 34 36 35 35 35 36 36 36 35 34
51 51 50 47 45 44 45 47 47 47 43 36 37 35 35 41 41 41 40 41 38 41 40 39 40 38 36 39 36 34 35 35 34 34 35 36 36 35 35 36 36 35 34 33
50 47 43 40 43 47 45 43 42 39 40 39 37 37 37 39 38 37 37 38 36 34 38 40 37 37 38 37 36 36 36 35 35 35 33 34 33 34 35 35 34 32 30 31
44 40 38 43 44 41 39 37 38 36 34 37 37 36 36 39 36 35 36 34 34 33 34 35 34 31 35 36 36 37 37 36 36 36 36 35 35 34 33 30 30 30 30 31
42 42 42 41 37 36 34 33 34 33 31 36 36 36 37 37 37 35 34 32 31 29 34 33 29 31 29 33 34 35 35 34 32 33 34 33 34 31 29 29 30 31 31 32
43 39 37 37 34 30 29 27 29 32 35 35 35 34 36 36 35 32 31 29 29 31 31 28 28 27 29 30 33 34 34 31 28 28 28 28 29 30 30 30 31 31 31 32
35 33 32 32 30 31 30 30 31 33 35 36 36 34 34 34 34 32 28 28 28 25 23 24 24 26 28 29 31 33 32 28 27 28 29 29 29 29 29 30 30 30 30 30
33 34 31 31 28 27 26 29 33 35 38 36 34 34 33 31 30 29 29 27 24 23 22 25 24 27 26 28 31 32 29 26 26 25 25 25 25 25 26 28 29 29 28 28
32 31 27 27 28 27 29 31 33 35 36 34 35 30 29 27 29 26 25 23 22 25 28 28 28 27 25 25 27 26 24 23 22 22 22 23 23 22 22 21 23 25 25 24
32 29 28 26 27 28 29 31 35 35 34 31 31 29 27 29 26 26 25 25 26 27 26 27 30 28 26 24 22 22 22 23 23 22 22 22 23 22 21 21 19 17 14 16

GFSNW_sfc_dewp_027.txt.gz
Dewpoint
53 55 55 55 56 56 50 45 39 49 51 40 40 36 35 40 39 40 40 39 37 33 28 24 25 27 26 28 31 37 40 35 35 36 35 40 39 38 35 29 27 26 24 23
51 55 55 55 56 53 45 42 44 51 48 36 36 36 38 39 39 40 40 38 39 34 25 23 26 27 28 32 31 37 37 30 35 35 36 38 38 36 37 34 32 27 23 24
50 52 54 55 56 52 48 43 40 46 46 43 41 37 38 37 41 40 40 38 37 33 25 25 25 28 31 34 30 43 40 33 28 26 30 35 34 33 34 35 31 28 27 25
50 51 54 54 55 53 48 43 40 41 37 39 40 41 39 39 36 40 41 39 38 31 25 24 28 31 31 35 38 38 38 31 29 30 30 33 35 35 33 32 32 29 28 27
49 51 54 54 55 54 47 41 37 41 42 39 39 40 39 39 39 39 39 39 38 31 24 24 27 32 32 34 34 33 38 32 30 28 29 30 29 33 35 34 31 31 31 28
49 51 54 54 55 51 47 45 42 39 37 36 37 39 40 41 43 43 42 39 38 30 24 25 30 34 34 36 34 34 36 34 30 26 27 29 28 28 29 32 35 32 29 30
48 49 53 54 54 52 47 43 43 41 30 27 30 39 41 43 43 42 41 41 38 33 43 42 43 36 36 36 38 37 35 34 33 30 28 27 27 29 29 28 30 33 33 32
48 49 49 54 54 53 48 46 44 41 32 29 32 38 40 41 41 40 38 38 37 40 45 40 37 38 37 37 36 36 36 33 32 30 26 28 29 27 28 29 29 30 30 31
47 48 51 53 54 54 50 47 48 45 35 28 36 36 37 39 39 40 39 39 39 38 41 41 35 34 36 35 35 34 37 36 35 35 32 27 27 29 30 31 28 31 31 30
46 48 53 53 53 54 50 48 48 46 38 35 36 38 37 39 42 38 38 40 41 42 40 39 37 36 38 35 35 34 35 35 35 35 32 32 29 29 31 26 30 33 32 32
46 48 49 53 53 53 51 48 48 47 40 40 41 39 34 33 42 40 39 41 41 41 39 39 34 35 35 35 36 35 35 34 35 36 35 32 32 31 28 34 35 34 34 35
46 48 49 53 53 53 52 47 49 49 46 44 45 44 42 39 39 41 39 39 40 43 40 38 35 31 34 32 30 31 34 35 32 35 34 34 33 35 35 37 36 36 37 37
46 48 49 53 53 54 52 48 49 48 46 45 44 42 45 45 44 45 42 42 43 43 42 42 40 35 33 33 31 31 31 31 30 29 32 33 34 35 36 37 37 37 36 36
46 48 49 53 53 54 52 48 49 49 46 42 42 45 44 45 44 43 41 41 39 42 44 43 42 39 35 34 33 31 31 31 32 30 34 34 35 35 36 36 36 36 36 35
46 48 50 53 53 53 53 51 50 50 48 41 42 44 44 44 42 41 41 40 40 40 42 43 41 38 37 36 35 34 33 31 30 29 33 33 34 36 36 36 36 36 36 36
47 48 51 53 52 52 50 46 49 50 50 44 40 44 43 43 43 43 43 43 42 43 44 43 41 40 39 40 38 35 33 34 34 33 34 35 36 36 36 36 36 36 36 36
48 49 52 52 52 50 46 44 47 50 49 43 39 40 42 43 44 44 43 44 45 45 43 42 41 40 40 38 38 35 34 35 35 36 36 35 36 35 36 36 36 38 36 36
49 52 52 51 50 49 46 48 49 49 44 42 34 38 41 42 42 42 44 44 45 44 43 42 41 40 39 40 39 34 35 36 35 35 35 36 36 36 36 37 37 36 35 34
51 51 50 48 46 44 46 47 47 48 44 37 38 36 36 42 41 42 41 43 41 43 41 41 41 39 37 41 39 34 36 35 35 36 37 38 38 38 38 38 37 36 34 34
50 48 44 40 44 48 47 44 43 42 41 41 39 39 37 40 39 38 39 39 38 35 39 40 39 38 40 39 38 36 36 37 37 36 34 35 35 35 36 36 35 33 32 31
45 41 39 43 46 42 41 37 40 38 36 39 37 36 37 39 37 36 37 36 36 34 36 37 35 33 36 37 37 38 39 37 37 37 37 37 36 35 34 34 30 28 29 30
43 42 43 41 38 37 35 36 35 33 34 37 36 37 38 38 39 36 36 34 34 31 35 35 31 32 30 34 35 37 36 35 34 35 35 35 35 34 30 29 29 30 31 31
44 40 36 38 35 32 31 28 31 32 36 36 37 35 37 37 38 35 34 32 32 32 31 28 30 29 31 34 35 35 33 31 32 32 34 30 29 29 29 30 30 31 31 32
35 33 32 34 31 33 33 32 33 37 37 37 37 35 35 36 35 33 32 30 29 28 26 26 26 28 30 33 34 31 28 28 28 29 30 30 29 29 30 30 30 30 30 31
33 35 32 32 31 30 31 34 35 37 39 37 37 37 34 33 32 31 29 28 26 26 25 27 25 28 29 33 33 28 27 27 27 27 28 28 28 28 29 29 30 30 30 29
32 33 30 29 31 29 30 32 34 38 38 38 39 33 32 29 31 27 27 25 25 28 31 32 30 28 30 33 32 27 26 25 24 24 24 24 24 24 24 26 27 27 27 27
32 31 30 31 32 31 31 33 36 38 36 36 35 32 31 31 28 28 29 28 30 31 30 30 30 29 31 30 24 23 23 23 23 23 24 23 23 22 21 22 20 20 18 20

GFSNW_sfc_dewp_030.txt.gz
Dewpoint
50 50 51 54 55 55 52 46 40 50 51 40 39 35 34 36 38 40 39 39 38 37 33 31 27 26 26 29 37 35 38 38 34 35 39 41 40 39 37 29 26 27 25 24
49 49 50 51 55 54 48 43 44 51 48 35 36 37 36 37 38 38 38 37 38 38 35 31 26 27 28 31 35 36 39 37 33 34 38 41 41 39 39 35 33 28 24 24
49 50 50 50 55 53 49 44 40 44 45 42 38 36 35 35 40 39 40 38 39 39 36 32 25 25 30 33 32 43 43 39 36 34 35 38 37 39 36 35 32 29 26 24
47 48 49 51 54 52 49 44 40 41 37 38 40 40 39 38 35 39 40 38 38 38 31 31 23 26 31 35 36 39 42 34 36 35 36 37 36 36 32 35 34 30 29 26
46 47 48 49 54 52 47 40 39 43 39 38 39 39 37 38 38 38 38 38 38 37 33 24 24 26 30 30 30 33 39 36 32 29 33 33 33 35 33 32 34 34 33 31
46 46 49 49 53 52 47 46 43 40 39 38 37 38 38 39 42 41 40 39 39 38 36 26 27 30 31 33 34 34 37 36 31 26 28 29 28 31 35 35 34 32 31 32
46 46 48 49 54 52 48 45 45 41 35 35 33 33 39 41 42 41 41 41 39 39 38 33 33 35 33 35 33 33 33 35 35 32 28 23 28 29 30 31 33 35 35 34
46 46 48 49 50 53 49 45 45 43 38 37 36 31 40 42 43 41 43 42 40 42 43 34 35 37 37 36 35 36 35 35 34 32 27 28 28 29 29 29 29 31 33 35
45 45 47 48 52 53 50 47 49 45 40 37 35 38 40 41 41 41 38 40 41 40 44 40 33 31 36 35 35 37 37 36 35 34 29 27 29 30 30 31 28 34 31 32
44 46 47 48 49 54 51 49 49 47 41 41 38 37 39 43 42 39 39 40 39 42 42 38 34 33 37 34 35 35 36 37 35 34 34 32 30 30 31 28 30 34 33 34
44 46 47 48 49 53 52 48 49 47 44 43 42 40 41 39 44 41 40 41 41 41 40 39 38 37 37 37 37 36 35 34 33 36 33 29 32 31 29 34 35 33 36 37
44 46 47 48 50 53 52 47 49 50 46 46 46 44 44 40 41 42 41 41 41 43 40 38 35 34 35 34 35 37 35 38 36 37 35 35 34 35 36 37 35 37 37 38
44 45 47 48 50 53 52 48 49 48 46 46 45 43 44 45 43 47 42 42 45 43 43 42 40 34 35 32 32 33 35 39 31 33 33 34 35 35 36 37 37 38 37 37
43 44 47 47 49 53 52 48 49 49 47 42 43 45 44 46 45 45 47 46 45 45 46 43 42 40 36 37 33 32 32 32 32 31 34 34 35 35 37 36 37 36 36 37
43 44 46 47 49 53 52 51 50 51 48 42 43 44 44 44 43 42 44 45 41 42 44 43 41 42 39 38 36 34 32 31 31 32 33 33 34 36 37 36 36 37 36 37
43 44 46 48 51 53 50 45 50 50 50 46 38 44 43 43 42 42 42 43 43 44 44 43 42 41 39 36 36 36 34 34 35 33 35 36 36 37 37 36 37 37 36 36
43 45 47 49 52 51 46 44 47 51 50 44 38 40 42 43 44 44 44 44 45 45 43 42 41 40 40 38 37 36 34 35 36 36 36 35 36 36 37 37 37 38 36 36
44 46 49 52 50 49 46 48 50 50 45 43 34 37 40 43 42 41 44 43 44 43 42 42 41 39 39 36 40 35 35 35 36 35 36 37 37 36 36 37 36 35 35 34
46 48 51 49 47 44 46 48 49 48 45 37 36 35 35 42 41 42 41 42 39 42 40 40 41 39 35 39 39 35 35 35 35 37 37 37 36 35 35 36 35 34 33 33
49 49 44 40 44 48 47 44 43 40 41 41 38 40 37 40 39 37 39 39 37 32 38 39 38 37 40 40 38 36 37 37 37 35 34 36 35 35 35 35 35 34 33 32
45 42 39 44 47 43 41 37 38 38 34 39 38 38 37 40 37 36 37 34 34 32 35 35 34 33 37 35 37 38 37 37 36 37 36 36 36 35 34 31 31 31 30 31
43 42 43 42 39 37 34 34 34 34 32 37 36 38 39 36 39 34 35 33 33 30 35 34 29 32 30 34 36 36 36 36 36 37 36 36 35 34 30 29 29 30 31 32
44 40 37 37 34 32 30 28 30 31 35 36 36 35 36 35 35 32 31 29 29 32 30 28 30 29 33 34 35 33 34 35 35 35 33 30 29 29 30 30 31 31 31 31
36 33 31 33 31 30 30 30 31 34 36 36 36 34 34 34 31 31 22 29 29 25 24 22 28 30 32 34 32 30 30 31 30 29 29 29 29 30 30 31 31 31 31 30
32 34 32 32 31 31 32 33 34 36 38 36 34 34 32 30 27 29 28 26 22 25 24 27 27 30 32 32 28 28 28 28 28 28 28 28 29 29 29 30 30 30 29 28
32 32 30 30 30 29 31 33 34 37 37 36 33 31 27 28 27 24 20 20 20 25 27 27 27 30 32 29 27 26 26 26 26 26 26 27 27 27 27 26 26 27 26 24
32 30 31 31 33 31 32 34 35 38 35 33 32 26 24 30 27 21 24 24 27 25 26 27 28 30 31 26 24 24 23 23 23 24 23 23 22 21 21 19 19 20 18 18